User: anonymous   Login
Location: Unspecified
(0.0000°N, 0.0000°E)
Time: 04:03:28
(UTC+00:00)
Language:

Amsat-Oscar-6 - Orbit

View from above orbital plane
View from above orbital plane
View from above satellite
View from above satellite

Ground track
Ground track

The orbit data is extracted from the following two-line orbital elements,

1  6236U 72082B   19139.91350931 -.00000052  00000-0 -39332-4 0  9993
2  6236 101.8215 108.4191 0004586  50.6259  14.4389 12.53149506131304
Epoch (UTC): 19 May 2019 21:55:27
Eccentricity: 0.0004586
inclination: 101.8215°
perigee height: 1448 km
apogee height: 1455 km
right ascension of ascending node: 108.4191°
argument of perigee: 50.6259°
revolutions per day: 12.53149506
mean anomaly at epoch: 14.4389°
orbit number at epoch: 13130

The dashed part of the orbit path shows where the satellite is in the earth's shadow,  

DLR